When you browse on this site, cookies collect data to enhance your experience and personalize the content and advertising you see.
Visit our Privacy Policy to learn more. By continuing to use the site, you agree to this use of cookies and data.
  • In United Kingdom
  • List of Countries
  • For 7 days
  • Water Temperature
  • Weather Map
  • Weather Widgets
  • user-avatar
    Login

    Hourly Weather Primorsko

    Today, 22 October, Tuesday

    Time Temperature Precipitation Wind Pressure Humidity
    00:00 +15°C° 0 mm 1 mps 766 mmHg 94%
    01:00 +15°C° 0 mm 1 mps 766 mmHg 94%
    02:00 +15°C° 0 mm 2 mps 766 mmHg 94%
    03:00 +15°C° 0 mm 2 mps 766 mmHg 94%
    04:00 +15°C° 0 mm 2 mps 766 mmHg 94%
    05:00 +15°C° 0 mm 2 mps 766 mmHg 94%
    06:00 +16°C° 0 mm 2 mps 766 mmHg 92%
    07:00 +16°C° 0 mm 3 mps 766 mmHg 90%
    08:00 +17°C° 0 mm 3 mps 767 mmHg 86%
    09:00 +18°C° 0 mm 3 mps 767 mmHg 83%
    10:00 +18°C° 0 mm 4 mps 767 mmHg 81%
    11:00 +19°C° 0 mm 4 mps 767 mmHg 78%
    12:00 +20°C° 0 mm 4 mps 767 mmHg 76%
    13:00 +20°C° 0 mm 4 mps 766 mmHg 73%
    14:00 +21°C° 0 mm 4 mps 766 mmHg 71%
    15:00 +20°C° 0 mm 4 mps 766 mmHg 76%
    16:00 +19°C° 0 mm 4 mps 766 mmHg 82%
    17:00 +18°C° 0 mm 4 mps 766 mmHg 88%
    18:00 +17°C° 0 mm 4 mps 766 mmHg 90%
    19:00 +17°C° 0 mm 4 mps 766 mmHg 92%
    20:00 +15°C° 0 mm 4 mps 766 mmHg 94%
    21:00 +16°C° 0 mm 3 mps 766 mmHg 94%
    22:00 +16°C° 0 mm 3 mps 766 mmHg 93%
    23:00 +15°C° 0 mm 2 mps 766 mmHg 93%

    Tomorrow, 23 October, Wednesday

    Time Temperature Precipitation Wind Pressure Humidity
    00:00 +15°C° 0 mm 2 mps 766 mmHg 93%
    01:00 +15°C° 0 mm 2 mps 766 mmHg 93%
    02:00 +15°C° 0 mm 2 mps 766 mmHg 92%
    03:00 +14°C° 0 mm 2 mps 766 mmHg 93%
    04:00 +14°C° 0 mm 2 mps 766 mmHg 94%
    05:00 +13°C° 0 mm 3 mps 766 mmHg 94%
    06:00 +14°C° 0 mm 3 mps 766 mmHg 93%
    07:00 +16°C° 0 mm 3 mps 766 mmHg 92%
    08:00 +16°C° 0 mm 3 mps 766 mmHg 91%
    09:00 +18°C° 0 mm 3 mps 766 mmHg 84%
    10:00 +19°C° 0 mm 3 mps 766 mmHg 77%
    11:00 +21°C° 0 mm 3 mps 766 mmHg 69%
    12:00 +21°C° 0 mm 3 mps 766 mmHg 66%
    13:00 +22°C° 0 mm 4 mps 765 mmHg 63%
    14:00 +22°C° 0 mm 4 mps 765 mmHg 60%
    15:00 +21°C° 0 mm 4 mps 765 mmHg 67%
    16:00 +19°C° 0 mm 3 mps 764 mmHg 75%
    17:00 +18°C° 0 mm 3 mps 764 mmHg 82%
    18:00 +17°C° 0 mm 3 mps 765 mmHg 85%
    19:00 +16°C° 0 mm 2 mps 765 mmHg 87%
    20:00 +15°C° 0 mm 2 mps 765 mmHg 90%
    21:00 +15°C° 0 mm 2 mps 765 mmHg 90%
    22:00 +15°C° 0 mm 1 mps 765 mmHg 89%
    23:00 +14°C° 0 mm 1 mps 765 mmHg 89%

    Day after tomorrow, 24 October, Thursday

    Time Temperature Precipitation Wind Pressure Humidity
    00:00 +14°C° 0 mm 1 mps 765 mmHg 89%
    01:00 +14°C° 0 mm 1 mps 765 mmHg 88%
    02:00 +14°C° 0 mm 1 mps 765 mmHg 88%
    03:00 +14°C° 0 mm 1 mps 764 mmHg 89%
    04:00 +13°C° 0 mm 1 mps 764 mmHg 89%
    05:00 +13°C° 0 mm 1 mps 764 mmHg 90%
    06:00 +14°C° 0 mm 1 mps 764 mmHg 87%
    07:00 +15°C° 0 mm 1 mps 764 mmHg 84%
    08:00 +16°C° 0 mm 1 mps 764 mmHg 82%
    09:00 +19°C° 0 mm 1 mps 764 mmHg 72%
    10:00 +20°C° 0 mm 2 mps 764 mmHg 63%
    11:00 +21°C° 0 mm 2 mps 764 mmHg 54%
    12:00 +23°C° 0 mm 2 mps 764 mmHg 52%
    13:00 +22°C° 0 mm 3 mps 763 mmHg 51%
    14:00 +22°C° 0 mm 3 mps 763 mmHg 49%
    15:00 +21°C° 0 mm 2 mps 763 mmHg 57%
    16:00 +19°C° 0 mm 2 mps 763 mmHg 65%
    17:00 +17°C° 0 mm 2 mps 762 mmHg 73%
    18:00 +16°C° 0 mm 2 mps 762 mmHg 77%
    19:00 +16°C° 0 mm 1 mps 763 mmHg 81%
    20:00 +15°C° 0 mm 1 mps 763 mmHg 84%
    21:00 +14°C° 0 mm 1 mps 763 mmHg 85%
    22:00 +14°C° 0 mm 1 mps 763 mmHg 86%
    23:00 +14°C° 0 mm 1 mps 763 mmHg 87%

    25 October, Friday

    Time Temperature Precipitation Wind Pressure Humidity
    00:00 +14°C° 0 mm 1 mps 763 mmHg 87%
    01:00 +14°C° 0 mm 1 mps 763 mmHg 87%
    02:00 +13°C° 0 mm 1 mps 762 mmHg 88%
    03:00 +13°C° 0 mm 1 mps 762 mmHg 88%
    04:00 +13°C° 0 mm 1 mps 762 mmHg 88%
    05:00 +13°C° 0 mm 1 mps 762 mmHg 88%
    06:00 +14°C° 0 mm 1 mps 762 mmHg 85%
    07:00 +15°C° 0 mm 1 mps 763 mmHg 82%
    08:00 +16°C° 0 mm 1 mps 763 mmHg 79%
    09:00 +19°C° 0 mm 1 mps 763 mmHg 71%
    10:00 +21°C° 0 mm 1 mps 763 mmHg 63%
    11:00 +23°C° 0 mm 2 mps 763 mmHg 55%
    12:00 +23°C° 0 mm 2 mps 763 mmHg 53%
    13:00 +23°C° 0 mm 2 mps 763 mmHg 52%
    14:00 +24°C° 0 mm 2 mps 762 mmHg 51%
    15:00 +21°C° 0 mm 2 mps 762 mmHg 60%
    16:00 +19°C° 0 mm 2 mps 762 mmHg 68%
    17:00 +18°C° 0 mm 2 mps 762 mmHg 77%
    18:00 +17°C° 0 mm 2 mps 763 mmHg 80%
    19:00 +16°C° 0 mm 1 mps 763 mmHg 84%
    20:00 +15°C° 0 mm 1 mps 763 mmHg 87%
    21:00 +15°C° 0 mm 1 mps 764 mmHg 87%
    22:00 +14°C° 0 mm 1 mps 764 mmHg 88%
    23:00 +14°C° 0 mm 1 mps 764 mmHg 88%

    26 October, Saturday

    Time Temperature Precipitation Wind Pressure Humidity
    00:00 +14°C° 0 mm 1 mps 764 mmHg 88%
    01:00 +14°C° 0 mm 1 mps 764 mmHg 88%
    02:00 +14°C° 0 mm 1 mps 764 mmHg 88%
    03:00 +14°C° 0 mm 1 mps 764 mmHg 88%
    04:00 +13°C° 0 mm 1 mps 764 mmHg 88%
    05:00 +13°C° 0 mm 1 mps 764 mmHg 89%
    06:00 +14°C° 0 mm 1 mps 764 mmHg 85%
    07:00 +15°C° 0 mm 1 mps 765 mmHg 82%
    08:00 +16°C° 0 mm 1 mps 765 mmHg 78%
    09:00 +19°C° 0 mm 1 mps 765 mmHg 71%
    10:00 +21°C° 0 mm 1 mps 765 mmHg 63%
    11:00 +23°C° 0 mm 1 mps 765 mmHg 55%
    12:00 +23°C° 0 mm 1 mps 765 mmHg 53%
    13:00 +24°C° 0 mm 1 mps 764 mmHg 51%
    14:00 +24°C° 0 mm 1 mps 764 mmHg 49%
    15:00 +22°C° 0 mm 1 mps 764 mmHg 58%
    16:00 +19°C° 0 mm 2 mps 763 mmHg 67%
    17:00 +18°C° 0 mm 2 mps 763 mmHg 76%
    18:00 +17°C° 0 mm 2 mps 763 mmHg 78%
    19:00 +16°C° 0 mm 1 mps 763 mmHg 81%
    20:00 +15°C° 0 mm 1 mps 763 mmHg 83%
    21:00 +15°C° 0 mm 1 mps 763 mmHg 81%
    22:00 +15°C° 0 mm 1 mps 763 mmHg 79%
    23:00 +15°C° 0 mm 1 mps 763 mmHg 77%

    27 October, Sunday

    Time Temperature Precipitation Wind Pressure Humidity
    00:00 +15°C° 0 mm 1 mps 763 mmHg 74%
    01:00 +14°C° 0 mm 1 mps 763 mmHg 71%
    02:00 +14°C° 0 mm 1 mps 763 mmHg 69%
    03:00 +14°C° 0 mm 1 mps 763 mmHg 67%
    04:00 +14°C° 0 mm 1 mps 762 mmHg 66%
    05:00 +14°C° 0 mm 1 mps 762 mmHg 65%
    06:00 +15°C° 0 mm 2 mps 762 mmHg 62%
    07:00 +16°C° 0 mm 2 mps 762 mmHg 58%
    08:00 +17°C° 0 mm 2 mps 762 mmHg 55%
    09:00 +19°C° 0 mm 2 mps 762 mmHg 48%
    10:00 +23°C° 0 mm 2 mps 762 mmHg 42%
    11:00 +25°C° 0 mm 1 mps 762 mmHg 35%
    12:00 +25°C° 0 mm 1 mps 762 mmHg 34%
    13:00 +26°C° 0 mm 1 mps 761 mmHg 32%
    14:00 +26°C° 0 mm 1 mps 761 mmHg 31%
    15:00 +24°C° 0 mm 2 mps 761 mmHg 37%
    16:00 +21°C° 0 mm 2 mps 761 mmHg 44%
    17:00 +19°C° 0 mm 2 mps 760 mmHg 50%
    18:00 +19°C° 0 mm 2 mps 760 mmHg 51%
    19:00 +18°C° 0 mm 2 mps 761 mmHg 51%
    20:00 +17°C° 0 mm 2 mps 761 mmHg 52%
    21:00 +17°C° 0 mm 2 mps 761 mmHg 50%
    22:00 +17°C° 0 mm 2 mps 761 mmHg 48%
    23:00 +17°C° 0 mm 2 mps 761 mmHg 46%

    28 October, Monday

    Time Temperature Precipitation Wind Pressure Humidity
    00:00 +17°C° 0 mm 2 mps 761 mmHg 46%
    01:00 +17°C° 0 mm 2 mps 761 mmHg 46%
    02:00 +16°C° 0 mm 2 mps 761 mmHg 46%
    03:00 +16°C° 0 mm 2 mps 761 mmHg 47%
    04:00 +16°C° 0 mm 2 mps 761 mmHg 47%
    05:00 +15°C° 0 mm 2 mps 761 mmHg 48%
    06:00 +16°C° 0 mm 2 mps 761 mmHg 48%
    07:00 +16°C° 0 mm 2 mps 762 mmHg 47%
    08:00 +17°C° 0 mm 2 mps 762 mmHg 47%
    09:00 +19°C° 0 mm 2 mps 762 mmHg 44%
    10:00 +20°C° 0 mm 2 mps 762 mmHg 41%
    11:00 +22°C° 0 mm 3 mps 762 mmHg 38%
    12:00 +22°C° 0 mm 3 mps 762 mmHg 39%
    13:00 +22°C° 0 mm 3 mps 762 mmHg 40%
    14:00 +22°C° 0 mm 3 mps 762 mmHg 41%
    15:00 +21°C° 0 mm 3 mps 761 mmHg 50%
    16:00 +19°C° 0 mm 3 mps 761 mmHg 59%
    17:00 +17°C° 0 mm 2 mps 761 mmHg 68%
    18:00 +16°C° 0 mm 2 mps 761 mmHg 72%
    19:00 +16°C° 0 mm 2 mps 761 mmHg 76%
    20:00 +15°C° 0 mm 1 mps 761 mmHg 80%
    21:00 +15°C° 0 mm 1 mps 761 mmHg 78%
    22:00 +15°C° 0 mm 1 mps 761 mmHg 76%
    23:00 +15°C° 0 mm 1 mps 761 mmHg 74%
    Show more